This is the latest recevied weather packets stored in our database for station/object VE3DVC. If no packets are shown the sender has not sent any weather packets the latest 10 day(s).
| Time | Temp. | Humidity | Pressure | Rain* | Wind** | Luminosity | Snow |
|---|---|---|---|---|---|---|---|
| 1777262693 | 8.33° C | 70% | 1022.2 hPa | 0 mm | - | - | - |
| 1777261973 | 8.33° C | 67% | 1022.3 hPa | 0 mm | - | - | - |
| 1777261253 | 8.33° C | 66% | 1022 hPa | 0 mm | - | - | - |
| 1777259839 | 8.89° C | 68% | 1021.7 hPa | 0 mm | - | - | - |
| 1777259119 | 8.89° C | 66% | 1021.5 hPa | 0 mm | - | - | - |
| 1777258400 | 8.89° C | 67% | 1021.6 hPa | 0 mm | - | - | - |
| 1777257679 | 9.44° C | 67% | 1021.5 hPa | 0 mm | - | - | - |
| 1777256959 | 9.44° C | 64% | 1021.6 hPa | 0 mm | - | - | - |
| 1777256239 | 9.44° C | 64% | 1021.6 hPa | 0 mm | - | - | - |
| 1777255519 | 9.44° C | 66% | 1021.6 hPa | 0 mm | - | - | - |
| 1777254799 | 10° C | 66% | 1021.6 hPa | 0 mm | - | - | - |
| 1777254080 | 10° C | 67% | 1021.7 hPa | 0 mm | - | - | - |
| 1777251449 | 11.67° C | 62% | 1021.5 hPa | 0 mm | - | - | - |
| 1777250728 | 12.22° C | 59% | 1021.3 hPa | 0 mm | - | - | - |
| 1777250008 | 12.78° C | 55% | 1021.3 hPa | 0 mm | - | - | - |
| 1777249288 | 13.33° C | 56% | 1021.3 hPa | 0 mm | - | - | - |
| 1777248568 | 13.33° C | 56% | 1021.1 hPa | 0 mm | - | - | - |
| 1777247387 | 14.44° C | 55% | 1021.2 hPa | 0 mm | - | - | - |
| 1777246667 | 14.44° C | 54% | 1021 hPa | 0 mm | - | - | - |
| 1777245947 | 15° C | 53% | 1021.2 hPa | 0 mm | - | - | - |
| 1777245227 | 15° C | 53% | 1021 hPa | 0 mm | - | - | - |
| 1777244507 | 15.56° C | 52% | 1021.2 hPa | 0 mm | - | - | - |
| 1777243096 | 16.11° C | 53% | 1021 hPa | 0 mm | - | - | - |
| 1777242376 | 16.11° C | 53% | 1021.1 hPa | 0 mm | - | - | - |
| 1777241656 | 16.11° C | 55% | 1021.2 hPa | 0 mm | - | - | - |
* Rain latest hour (hover to see other rain measurements)
** Current wind speed in m/s (hover to see current wind gust speed)